This demonstration page uses our WeatherBlox Daily Observations layout. Learn more.

Left ArrowRight Arrow

47.50024, -111.30081

Hourly Observations for March 25, 2015

Temp ( °F °C ) Dew Point ( °F °C ) Humidity (%) Winds ( mph kmh ) Pressure ( in mb ) Visibility ( mi km ) Precip ( " mm )
12:16 am 00:16 Cloudy with Light Snow 28 -2 28 -2 100 100 N 5 7 30.27 1025 2 3 0.00 0.00
12:34 am 00:34 Cloudy with Mist and Fog 28 -2 28 -2 100 100 Calm 30.27 1025 5 8 0.00 0.00
12:53 am 00:53 Cloudy with Mist and Fog 29 -1.7 28 -2.2 96 96 Calm 30.22 1023 6 10 0.01 0.25
1:19 am 01:19 Cloudy with Mist and Fog 28 -2 28 -2 100 100 Calm 30.27 1025 6 10 0.00 0.00
1:36 am 01:36 Cloudy with Mist and Fog 30 -1 27 -3 86 86 Calm 30.30 1026 6 10 0.00 0.00
1:45 am 01:45 Cloudy with Mist and Fog 30 -1 28 -2 93 93 Calm 30.30 1026 6 10 0.00 0.00
1:53 am 01:53 Cloudy with Mist and Fog 30 -1.1 28 -2.2 92 92 Calm 30.22 1023 6 10 0.00 0.00
2:20 am 02:20 Cloudy 30 -1 28 -2 93 93 Calm 30.30 1026 7 11 0.00 0.00
2:53 am 02:53 Cloudy 30 -1.1 28 -2.2 92 92 Calm 30.23 1024 7 11 0.00 0.00
3:53 am 03:53 Cloudy with Mist and Fog 29 -1.7 28 -2.2 96 96 Calm 30.24 1024 6 10 0.00 0.00
4:05 am 04:05 Cloudy with Mist and Fog 28 -2 28 -2 100 100 Calm 30.30 1026 6 10 0.00 0.00
4:53 am 04:53 Cloudy with Mist and Fog 29 -1.7 28 -2.2 96 96 N 3 6 30.25 1024 6 10 0.00 0.00
5:53 am 05:53 Cloudy with Mist and Fog 29 -1.7 27 -2.8 92 92 Calm 30.28 1025 6 10 0.00 0.00
8:53 am 08:53 Sunny with Mist and Fog 30 -1.1 28 -2.2 92 92 Calm 30.30 1026 5 8 0.00 0.00
9:53 am 09:53 Sunny 36 2.2 30 -1.1 79 79 SW 12 19 30.30 1026 10 16 0.00 0.00
10:53 am 10:53 Sunny 41 5 33 0.6 73 73 SW 15 24 30.29 1026 10 16 0.00 0.00
11:53 am 11:53 Sunny 47 8.3 27 -2.8 46 46 W 20 31 30.27 1025 10 16 0.00 0.00
12:53 pm 12:53 Mostly Sunny 49 9.4 25 -3.9 39 39 WSW 21 33 30.24 1024 10 16 0.00 0.00
1:53 pm 13:53 Mostly Sunny 49 9.4 21 -6.1 33 33 WSW 24 39 30.21 1023 10 16 0.00 0.00
2:53 pm 14:53 Partly Cloudy 49 9.4 23 -5 36 36 WSW 20 31 30.20 1023 10 16 0.00 0.00
3:53 pm 15:53 Sunny 49 9.4 23 -5 36 36 WSW 24 39 30.19 1022 10 16 0.00 0.00
4:53 pm 16:53 Mostly Cloudy 49 9.4 24 -4.4 38 38 WSW 22 35 30.19 1022 10 16 0.00 0.00
5:53 pm 17:53 Mostly Sunny 48 8.9 23 -5 37 37 WSW 22 35 30.16 1021 10 16 0.00 0.00
6:53 pm 18:53 Cloudy 47 8.3 25 -3.9 42 42 WSW 20 31 30.16 1021 10 16 0.00 0.00
7:53 pm 19:53 Clear 45 7.2 26 -3.3 48 48 WSW 18 30 30.18 1022 10 16 0.00 0.00
8:53 pm 20:53 Clear 42 5.6 27 -2.8 55 55 WSW 16 26 30.19 1022 10 16 0.00 0.00
9:53 pm 21:53 Clear 40 4.4 28 -2.2 63 63 SW 13 20 30.20 1023 10 16 0.00 0.00
10:53 pm 22:53 Clear 42 5.6 29 -1.7 60 60 SW 14 22 30.19 1022 10 16 0.00 0.00
11:53 pm 23:53 Mostly Cloudy 43 6.1 29 -1.7 58 58 SW 13 20 30.18 1022 10 16 0.00 0.00

Powered by AerisWeather